Flag for Germany Weather past 2 weeks in Bingen am Rhein, Rhineland-Palatinate, Germany

Now
44 °F

Partly sunny.


Feels Like: 39 °F
Forecast: 34 / 49 °F
Wind: 7 mph from North

Location: Wiesbaden Airport

Current Time: Mar 5, 2015 at 1:10:21 PM

Latest Report: Mar 5, 2015 at 11:58 AM


Visibility: N/A

Pressure: 30.65 "Hg

Humidity: 62%

Dew point: 31 °F

Location of Bingen am RheinLocation

Historic Weather in Bingen am Rhein — Graph

°F

Bingen am Rhein temperature yesterday

Maximum temperature yesterday: 46 °F (at 3:58 PM)
Minimum temperature yesterday: 32 °F (at 7:58 AM)
Average temperature yesterday: 39 °F

Past Weeks' High & Low Weather Summary

 TemperatureHumidityPressure
High52 °F (Feb 20, 1:58 PM)100% (Feb 22, 5:58 AM)30.78 "Hg (Feb 22, 5:58 AM)
Low29 °F (Feb 28, 6:58 AM)43% (Mar 2, 3:58 PM)29.47 "Hg (Feb 21, 6:58 AM)
Average39 °F81%30.00 "Hg
* Reported Feb 18 10:58 AM — Mar 5 10:55 AM, Bingen am Rhein, Weather by CustomWeather, © 2015

Note: Actual official high and low records may vary slightly from our data, if they occured in-between our weather recording intervals... More about our weather records

Advertising

Bingen am Rhein weather history for previous 24 hours

 ConditionsComfort  
Time TempWeatherWind HumidityBarometerVisibility
10:55 AM
Thu, Mar 5
44 °FPartly sunny.9 mph63%30.65 "HgN/A
9:55 AM42 °FScattered clouds.5 mph65%30.64 "HgN/A
8:58 AM39 °FOvercast.5 mph73%30.63 "HgN/A
7:58 AM35 °FScattered clouds.2 mph81%30.61 "HgN/A
6:58 AM36 °FPassing clouds.No wind75%30.60 "HgN/A
5:58 AM37 °FPassing clouds.3 mph74%30.58 "HgN/A
4:58 AM36 °FClear.No wind77%30.55 "HgN/A
3:58 AM37 °FClear.5 mph81%30.53 "HgN/A
2:58 AM39 °FClear.10 mph70%30.50 "HgN/A
1:58 AM39 °FPassing clouds.13 mph75%30.49 "HgN/A
12:58 AM40 °FPassing clouds.10 mph78%30.47 "HgN/A
11:58 PM
Wed, Mar 4
39 °FMostly cloudy.7 mph79%30.46 "HgN/A
10:58 PM39 °FMostly cloudy.8 mph81%30.44 "HgN/A
10:02 PM39 °FPassing clouds.8 mph75%30.40 "HgN/A
9:58 PM38 °FPassing clouds.10 mph83%30.42 "HgN/A
8:58 PM37 °FClear.8 mph87%30.42 "HgN/A
7:58 PM37 °FPassing clouds.8 mph87%30.41 "HgN/A
6:58 PM41 °FLight rain. Mostly cloudy.20 mph70%30.39 "HgN/A
5:58 PM41 °FSunny.8 mph76%30.36 "HgN/A
4:58 PM44 °FScattered clouds.10 mph63%30.32 "HgN/A
4:52 PM45 °FScattered clouds.10 mph61%30.30 "HgN/A
3:58 PM46 °FMostly cloudy.16 mph57%30.31 "HgN/A
2:58 PM45 °FMore clouds than sun.15 mph61%30.31 "HgN/A
2:02 PM45 °FScattered clouds.10 mph61%30.29 "HgN/A
Weather by CustomWeather, © 2015

See weather overviewHow to use our weather pages